Regional Weather Roundup
Issued by NWS Upton, NY

Current Version | Previous Version | Graphics & Text | Print | Product List | Glossary Off
Versions: 1 2 3 4 5 6 7 8 9 10 11 12 13 14 15 16 17 18 19 20 21 22 23 24 25 26 27 28 29 30 31 32 33 34 35 36 37 38 39 40 41 42 43 44 45 46 47 48 49 50

000
ASUS41 KOKX 221605
RWROKX

REGIONAL WEATHER ROUNDUP
NATIONAL WEATHER SERVICE NEW YORK NY
1100 AM EST SAT NOV 22 2014

NOTE: "FAIR" INDICATES FEW OR NO CLOUDS BELOW 12,000 FEET WITH NO
SIGNIFICANT WEATHER AND/OR OBSTRUCTIONS TO VISIBILITY.

NYZ071-072-176-178-NJZ106-104-221700-
NEW YORK CITY METRO AREA


CITY           SKY/WX    TMP DP  RH WIND       PRES   REMARKS
CENTRAL PARK   SUNNY     35  10  35 SW5       30.44F WCI  31
LAGUARDIA APRT MOSUNNY   35  11  36 SW18      30.43F WCI  24
KENNEDY INTL   MOSUNNY   37  15  40 SW18      30.45F WCI  27
NEWARK/LIBERTY MOSUNNY   37  12  35 SW18      30.44F WCI  27
BRNX BOT. GARD   N/A    N/A N/A N/A SW9       30.44F
TETERBORO      SUNNY     36  10  34 SW17G24   30.42F WCI  26
$$

NYZ177-179-078>081-221700-
LONG ISLAND NEW YORK

CITY           SKY/WX    TMP DP  RH WIND       PRES   REMARKS
FARMINGDALE    SUNNY     38  13  35 W16G24    30.43F WCI  29
ISLIP          MOSUNNY   38  12  34 W12       30.40F WCI  30
SHIRLEY        SUNNY     37  17  44 SW10      30.42F WCI  30
WESTHAMPTON    SUNNY     40  14  34 SW12      30.42F WCI  33
MONTAUK POINT    N/A     41  22  46 SW13G20   30.40F
$$

NYZ052-065-067-221700-
HUDSON VALLEY

CITY           SKY/WX    TMP DP  RH WIND       PRES   REMARKS
WHITE PLAINS   MOSUNNY   34  10  37 W9        30.37F WCI  27
NEWBURGH       MOSUNNY   34  14  44 W14G23    30.36F WCI  24
MONTGOMERY     FAIR      34  13  41 SW13G18   30.35F WCI  25
POUGHKEEPSIE   MOSUNNY   34  12  40 SW10      30.36F WCI  26
ALBANY         PTSUNNY   29  14  53 S10       30.31F WCI  20
$$

NJZ001-105-106-008-010-013-015-019>022-104-221700-
NEW JERSEY

CITY           SKY/WX    TMP DP  RH WIND       PRES   REMARKS
NEWARK/LIBERTY MOSUNNY   37  12  35 SW18      30.44F WCI  27
TETERBORO      SUNNY     36  10  34 SW17G24   30.42F WCI  26
CALDWELL       SUNNY     35  10  35 W8        30.42F WCI  29
MORRISTOWN     MOSUNNY   34  12  40 SW16      30.44F WCI  23
SOMERVILLE     SUNNY     37  12  35 SW8       30.42F WCI  31
SUSSEX         SUNNY     33  13  43 SW14G21   30.37F WCI  23
ANDOVER          N/A     33  11  39 SW14G22   30.38F WCI  23
TRENTON        SUNNY     37  13  37 SW12G21   30.45F WCI  29
MILLVILLE      SUNNY     40  17  39 SW10G18   30.49F WCI  33
ATLANTIC CITY  SUNNY     39  15  37 W10       30.48F WCI  32
WRIGHTSTOWN    SUNNY     38  12  33 SW16      30.44F WCI  29
TOMS RIVER     SUNNY     37  10  32 W9G17     30.47F WCI  31
BELMAR         SUNNY     37  10  32 SW12      30.45F WCI  30
$$

PAZ047>061-062-071-221700-
EASTERN PENNSYLVANIA

CITY           SKY/WX    TMP DP  RH WIND       PRES   REMARKS
PHILADELPHIA   SUNNY     38  17  42 SW18      30.49F WCI  28
ALLENTOWN      SUNNY     36  12  37 SW12      30.42F WCI  28
SCRANTON       SUNNY     34  11  38 SW10      30.33F WCI  26
$$

CTZ002-004>006-009-010-012-RIZ004-006-007-MAZ004-011-015-221700-
SOUTHERN NEW ENGLAND
 IN CT

CITY           SKY/WX    TMP DP  RH WIND       PRES   REMARKS
BRADLEY INTL   CLOUDY    37  11  34 SW13      30.33F WCI  29
HARTFORD       PTSUNNY   36  10  34 SW14G22   30.36F WCI  27
DANBURY        MOSUNNY   34  10  37 W14       30.37F WCI  25
WTRBRY/OXFORD  MOSUNNY   32  10  40 W7        30.35F WCI  26
BRIDGEPORT     SUNNY     36  16  44 SW13      30.39F WCI  27
MERIDEN        MOSUNNY   36  10  34 SW7       30.37F WCI  30
NEW HAVEN      MOSUNNY   39  16  39 SW9       30.39F WCI  33
CHESTER        FAIR      36  14  41 SW13G21   30.36F WCI  27
GROTON         MOSUNNY   38  20  48 SW17G24   30.37F WCI  28
WILLIMANTIC    PTSUNNY   38   9  30 SW10      30.36F WCI  31

 IN RI

CITY           SKY/WX    TMP DP  RH WIND       PRES   REMARKS
PROVIDENCE     PTSUNNY   38  17  42 SW15G24   30.36F WCI  29
BLOCK ISLAND   MOSUNNY   39  21  48 SW21G26   30.38F WCI  29
WESTERLY       MOSUNNY   39  18  42 SW14G22   30.39F WCI  31

 IN MA

CITY           SKY/WX    TMP DP  RH WIND       PRES   REMARKS
BOSTON         PTSUNNY   35  11  36 SW17      30.32F WCI  25
WORCESTER      CLOUDY    31   7  36 SW14      30.26F WCI  21
WESTFIELD      CLOUDY    33  12  41 S10       30.32F WCI  25
PROVINCETOWN   MOSUNNY   39  12  33 SW22      30.35F WCI  29
NANTUCKET      SUNNY     43  23  45 W22       30.39F
$$

ANZ330-335-338-340-345-350-353-355-221700-
COASTAL MARINE OBSERVATIONS


STATION/POSITION TIME  SKY/WX   TEMP    WIND        PRES    VSBY  WAVE
                                AIR SEA DIR/SP/G                  HT/PER
                 (UTC)          (F)     (DEG/KT/KT) (MB)    (MI)  (FT/S)
NY HARB ENTRANCE 1600            36 54  240/ 16/ 21 1031.6          2/ 3
4S FIRE IS       1600               52                N/A           4/ 5
20S FIRE ISLAND  1600            38 54  250/ 16/ 19 1031.2          3/ 4
23SW MTP         1600                                 N/A           4/ 5
HUDSON CANYON    1600            41 58  270/ 17/ 19 1031.6          3/ 4
EXECUTION ROCKS  1600            36 47  240/ 16/ 25   N/A
WESTERN LI SOUND 1600            36     240/ 16/ 19   N/A           2/ 3
CENTRAL LI SOUND 1500            36 51  240/ 16/ 21   N/A           3/ 5
EASTERN LI SOUND 1500            40 52  230/ 19/ 25   N/A
ROBBINS REEF     1600            33     240/ 13/ 16 1029.6
$$


>>>>>>>>>>>>>>>>>>>>>>>>>>>> KEY <<<<<<<<<<<<<<<<<<<<<<<<<<<
>                                                          <
>     SKY/WX - SKY CONDITION/PRESENT WEATHER               <
>     TMP    - TEMPERATURE IN FAHRENHEIT                   <
>     DP     - DEWPOINT IN FAHRENHEIT                      <
>     RH     - RELATIVE HUMIDITY IN PERCENT                <
>     WIND   - DIRECTION AND SPEED IN MPH                  <
>     PRES   - MEAN SEA LEVEL PRESSURE IN INCHES OF HG     <
>     WCI    - WIND CHILL INDEX                            <
>     VSB    - VISIBILITY IN MILES                         <
>     HX     - HEAT INDEX                                  <
>     TC     - TEMPERATURE IN CELSIUS                      <
>     VRB    - VARIABLE WIND DIRECTION                     <
>                                                          <
>>>>>>>>>>>>>>>>>>>>>>>>>>>> KEY <<<<<<<<<<<<<<<<<<<<<<<<<<<




USA.gov is the U.S. government's official web portal to all federal, state and local government web resources and services.